TimeCDT,TemperatureF,Dew PointF,Humidity,Sea Level PressureIn,VisibilityMPH,Wind Direction,Wind SpeedMPH,Gust SpeedMPH,PrecipitationIn,Events,Conditions,WindDirDegrees,DateUTC
12:54 AM,69.8,66.2,88,29.90,10.0,Calm,Calm,-,N/A,,Clear,0,2012-09-07 05:54:00
1:54 AM,71.1,66.0,84,29.89,10.0,Calm,Calm,-,N/A,,Clear,0,2012-09-07 06:54:00
2:54 AM,69.1,66.0,90,29.90,10.0,WSW,3.5,-,N/A,,Clear,240,2012-09-07 07:54:00
3:54 AM,70.0,66.0,87,29.90,10.0,WSW,4.6,-,N/A,,Clear,240,2012-09-07 08:54:00
4:54 AM,68.0,64.0,87,29.91,10.0,SW,5.8,-,N/A,,Clear,230,2012-09-07 09:54:00
5:54 AM,69.1,64.9,87,29.91,10.0,Calm,Calm,-,N/A,,Clear,0,2012-09-07 10:54:00
6:54 AM,68.0,64.9,90,29.93,10.0,Calm,Calm,-,N/A,,Clear,0,2012-09-07 11:54:00
7:54 AM,71.1,66.0,84,29.93,10.0,South,3.5,-,N/A,,Clear,170,2012-09-07 12:54:00
8:54 AM,73.9,64.9,73,29.92,10.0,South,3.5,-,N/A,,Partly Cloudy,190,2012-09-07 13:54:00
9:54 AM,79.0,66.0,64,29.92,10.0,South,5.8,-,N/A,,Scattered Clouds,180,2012-09-07 14:54:00
10:54 AM,82.0,66.0,58,29.91,10.0,South,4.6,-,N/A,,Mostly Cloudy,170,2012-09-07 15:54:00
11:54 AM,87.1,66.9,51,29.87,10.0,South,10.4,-,N/A,,Clear,190,2012-09-07 16:54:00
12:54 PM,89.1,69.1,52,29.85,10.0,SW,12.7,20.7,N/A,,Clear,220,2012-09-07 17:54:00
1:54 PM,90.0,69.1,50,29.83,10.0,SSW,10.4,-,N/A,,Partly Cloudy,200,2012-09-07 18:54:00
2:54 PM,87.1,69.1,55,29.81,10.0,SSW,8.1,-,0.00,Rain,Light Rain,210,2012-09-07 19:54:00
3:54 PM,91.0,70.0,50,29.76,10.0,SW,10.4,-,0.00,,Scattered Clouds,220,2012-09-07 20:54:00
4:54 PM,88.0,70.0,55,29.72,10.0,South,10.4,-,N/A,,Mostly Cloudy,190,2012-09-07 21:54:00
5:54 PM,87.1,71.1,59,29.69,10.0,South,8.1,-,N/A,,Scattered Clouds,190,2012-09-07 22:54:00
6:54 PM,86.0,70.0,59,29.68,10.0,SSW,6.9,-,N/A,,Clear,200,2012-09-07 23:54:00
7:54 PM,84.9,70.0,61,29.68,10.0,South,6.9,-,N/A,,Mostly Cloudy,190,2012-09-08 00:54:00
8:45 PM,82.4,62.6,51,29.71,10.0,SSW,17.3,36.8,N/A,Thunderstorm,Partly Cloudy,210,2012-09-08 01:45:00
8:54 PM,81.0,62.1,52,29.69,10.0,SSW,13.8,-,N/A,Thunderstorm,Thunderstorm,200,2012-09-08 01:54:00
9:07 PM,75.2,66.2,73,29.81,4.0,WNW,33.4,51.8,0.01,Rain-Thunderstorm,Light Thunderstorms and Rain,300,2012-09-08 02:07:00
9:11 PM,69.8,66.2,88,29.81,1.8,WNW,23.0,51.8,0.05,Rain-Thunderstorm,Heavy Thunderstorms and Rain,300,2012-09-08 02:11:00
9:17 PM,69.8,66.2,88,29.81,1.2,WNW,16.1,39.1,0.23,Rain-Thunderstorm,Heavy Thunderstorms and Rain,300,2012-09-08 02:17:00
9:22 PM,69.8,66.2,88,29.80,1.2,NW,12.7,28.8,0.35,Rain-Thunderstorm,Heavy Thunderstorms and Rain,310,2012-09-08 02:22:00
9:29 PM,69.8,66.2,88,29.79,2.0,WNW,15.0,21.9,0.49,Rain-Thunderstorm,Heavy Thunderstorms and Rain,300,2012-09-08 02:29:00
9:35 PM,69.8,66.2,88,29.78,4.0,NW,11.5,21.9,0.51,Rain-Thunderstorm,Heavy Thunderstorms and Rain,320,2012-09-08 02:35:00
9:46 PM,69.8,66.2,88,29.78,5.0,WNW,8.1,17.3,0.54,Rain-Thunderstorm,Heavy Thunderstorms and Rain,290,2012-09-08 02:46:00
9:54 PM,69.1,66.9,93,29.77,5.0,Variable,4.6,-,0.57,Rain-Thunderstorm,Heavy Rain,0,2012-09-08 02:54:00
9:58 PM,69.8,66.2,88,29.78,5.0,NNW,4.6,-,0.01,Rain-Thunderstorm,Heavy Thunderstorms and Rain,340,2012-09-08 02:58:00
10:19 PM,69.8,66.2,88,29.76,4.0,NE,5.8,-,0.08,Rain-Thunderstorm,Heavy Rain,50,2012-09-08 03:19:00
10:47 PM,69.8,66.2,88,29.75,10.0,Calm,Calm,-,0.16,Rain,Light Rain,0,2012-09-08 03:47:00
10:54 PM,69.1,66.9,93,29.74,10.0,South,4.6,-,0.17,Rain,Rain,190,2012-09-08 03:54:00
11:38 PM,69.8,68.0,94,29.76,10.0,South,3.5,-,0.09,Rain,Light Rain,180,2012-09-08 04:38:00
11:45 PM,69.8,68.0,94,29.76,10.0,Calm,Calm,-,0.09,Rain,Light Rain,0,2012-09-08 04:45:00
11:54 PM,70.0,68.0,93,29.75,10.0,Calm,Calm,-,0.09,Rain,Light Rain,0,2012-09-08 04:54:00